Weather History for KMCW - June, 2013

Change the Weather History Date:

Saturday, June 1, 2013

  Actual Average Record
Temperature  
Mean Temperature 61 °F 64 °F  
Max Temperature 70 °F 75 °F 92 °F (1934)
Min Temperature 51 °F 52 °F 36 °F (1993)
Degree Days  
Heating Degree Days 4 4  
Month to date heating degree days 4 4  
Since 1 June heating degree days 4 4  
Since 1 July heating degree days 7788 7639  
Cooling Degree Days 0 2  
Month to date cooling degree days 0 2  
Year to date cooling degree days 37 37  
Since 1 June cooling degree days 0 2  
Growing Degree Days 10 (Base 50)    
Moisture  
Dew Point 53 °F    
Average Humidity 74    
Maximum Humidity 87    
Minimum Humidity 61    
Precipitation  
Precipitation T in 0.17 in 7.00 in (1900)
Month to date precipitation T 0.17  
Year to date precipitation 21.42 12.65  
Snow  
Snow 0.00 in 0.00 in - ()
Month to date snowfall 0.0 0.0  
Since 1 June snowfall 0.0 0.0  
Since 1 July snowfall 56.3 41.2  
Snow Depth 0.00 in    
Sea Level Pressure  
Sea Level Pressure 29.70 in    
Wind  
Wind Speed 13 mph (West)    
Max Wind Speed 29 mph    
Max Gust Speed 35 mph    
Visibility 10 miles    
Events      
T = Trace of Precipitation, MM = Missing Value Source: NWS Daily Summary

Daily Weather History Graph

Daily Weather History Graph

Search for Another Location

Airport or City:

Trip Planner

Search our weather history database for the weather conditions in past years. The results will help you decide how hot, cold, wet, or windy it might be!

Date:

Astronomy

Jun. 01, 2013 Rise Set
Actual Time 5:36 AM CDT 8:46 PM CDT
Civil Twilight 5:01 AM CDT 9:21 PM CDT
Nautical Twilight 4:17 AM CDT 10:05 PM CDT
Astronomical Twilight 3:23 AM CDT 10:59 PM CDT
Moon 1:43 AM CDT (6/1) 2:06 PM CDT (6/1)
Length of Visible Light 16h 19m
Length of Day
15h 10m
Last Quarter, 40% of the Moon is Illuminated
Jun 1
Last Quarter
Jun 8
New
Jun 16
First Quarter
Jun 23
Full
Jun 29
Last Quarter

Hourly Weather History & Observations

Time (CDT) Temp. Dew Point Humidity Pressure Visibility Wind Dir Wind Speed Gust Speed Precip Events Conditions
12:53 AM 59.0 °F 55.9 °F 90% 29.59 in 10.0 mi South 5.8 mph - N/A   Clear
1:53 AM 60.1 °F 51.1 °F 72% 29.59 in 10.0 mi SW 8.1 mph - N/A   Scattered Clouds
2:53 AM 57.0 °F 50.0 °F 77% 29.58 in 10.0 mi West 6.9 mph - N/A   Partly Cloudy
3:53 AM 55.0 °F 48.9 °F 80% 29.57 in 10.0 mi West 8.1 mph - N/A   Clear
4:53 AM 54.0 °F 48.9 °F 83% 29.59 in 10.0 mi West 5.8 mph - N/A   Clear
5:53 AM 51.1 °F 46.9 °F 86% 29.60 in 10.0 mi WSW 4.6 mph - N/A   Clear
6:53 AM 57.0 °F 50.0 °F 77% 29.61 in 10.0 mi WSW 10.4 mph - N/A   Clear
7:53 AM 59.0 °F 50.0 °F 72% 29.62 in 10.0 mi WSW 10.4 mph - N/A   Clear
8:53 AM 61.0 °F 51.1 °F 70% 29.64 in 10.0 mi WSW 9.2 mph - N/A   Clear
9:38 AM 62.6 °F 51.8 °F 68% 29.67 in 10.0 mi West 10.4 mph - N/A   Mostly Cloudy
9:53 AM 62.1 °F 52.0 °F 70% 29.65 in 10.0 mi WSW 10.4 mph - N/A   Mostly Cloudy
10:53 AM 63.0 °F 52.0 °F 67% 29.66 in 10.0 mi WSW 11.5 mph - N/A   Overcast
11:18 AM 62.6 °F 53.6 °F 72% 29.69 in 10.0 mi SSW 9.2 mph - N/A   Overcast
11:40 AM 60.8 °F 51.8 °F 72% 29.70 in 10.0 mi WSW 5.8 mph - N/A   Overcast
11:53 AM 62.1 °F 53.1 °F 72% 29.68 in 10.0 mi WSW 9.2 mph - N/A   Overcast
12:53 PM 64.0 °F 54.0 °F 70% 29.69 in 10.0 mi WSW 5.8 mph - N/A   Overcast
1:28 PM 66.2 °F 55.4 °F 68% 29.71 in 10.0 mi WNW 8.1 mph - N/A   Overcast
1:40 PM 66.2 °F 55.4 °F 68% 29.71 in 10.0 mi WNW 11.5 mph - N/A   Overcast
1:50 PM 64.4 °F 55.4 °F 73% 29.71 in 10.0 mi WNW 9.2 mph - N/A   Overcast
1:53 PM 64.9 °F 55.0 °F 70% 29.69 in 10.0 mi WNW 9.2 mph - N/A   Overcast
2:13 PM 66.2 °F 55.4 °F 68% 29.71 in 10.0 mi West 12.7 mph - N/A   Overcast
2:33 PM 66.2 °F 55.4 °F 68% 29.72 in 10.0 mi WNW 13.8 mph - N/A   Overcast
2:53 PM 66.0 °F 55.9 °F 70% 29.70 in 10.0 mi West 11.5 mph - N/A   Overcast
3:40 PM 69.8 °F 55.4 °F 60% 29.72 in 10.0 mi NW 13.8 mph - N/A   Mostly Cloudy
3:48 PM 69.8 °F 57.2 °F 64% 29.72 in 10.0 mi WNW 12.7 mph - N/A   Mostly Cloudy
3:53 PM 69.1 °F 55.9 °F 63% 29.70 in 10.0 mi NW 16.1 mph 19.6 mph N/A   Scattered Clouds
4:53 PM 66.9 °F 57.0 °F 70% 29.71 in 10.0 mi WNW 16.1 mph 24.2 mph N/A   Mostly Cloudy
5:05 PM 66.2 °F 57.2 °F 73% 29.74 in 10.0 mi WNW 21.9 mph 28.8 mph N/A   Mostly Cloudy
5:14 PM 66.2 °F 57.2 °F 73% 29.74 in 10.0 mi WNW 23.0 mph 31.1 mph N/A   Mostly Cloudy
5:22 PM 66.2 °F 55.4 °F 68% 29.74 in 10.0 mi WNW 20.7 mph 31.1 mph N/A   Overcast
5:29 PM 66.2 °F 55.4 °F 68% 29.75 in 10.0 mi WNW 26.5 mph 29.9 mph N/A   Overcast
5:53 PM 64.0 °F 55.9 °F 75% 29.75 in 10.0 mi NW 20.7 mph 28.8 mph N/A   Mostly Cloudy
6:53 PM 63.0 °F 55.9 °F 78% 29.77 in 10.0 mi NNW 18.4 mph 33.4 mph 0.00 in   Overcast
7:53 PM 62.1 °F 55.0 °F 78% 29.79 in 10.0 mi NW 19.6 mph 25.3 mph N/A   Overcast
8:53 PM 60.1 °F 53.1 °F 78% 29.81 in 10.0 mi NNW 19.6 mph 26.5 mph 0.00 in   Overcast
9:53 PM 57.0 °F 50.0 °F 77% 29.85 in 10.0 mi NNW 20.7 mph 27.6 mph N/A   Overcast
10:53 PM 55.0 °F 48.0 °F 77% 29.88 in 10.0 mi NNW 19.6 mph 27.6 mph N/A   Overcast
11:53 PM 54.0 °F 46.0 °F 75% 29.91 in 10.0 mi NNW 20.7 mph 29.9 mph N/A   Overcast